Location: Newark
(42.9858°N, 0.6717°E)
Time: 05:41:14
(UTC+00:00)

Envisat - Visible Passes

Search period start: 23 October 2019 00:00
Search period end: 02 November 2019 00:00
Orbit: 764 x 766 km, 98.1° (Epoch: 22 October)

Date Brightness Start Highest point End Pass type
(mag) Time Alt. Az. Time Alt. Az. Time Alt. Az.
23 Oct 5.2 18:59:46 10° SSW 19:03:56 26° W 19:08:09 10° NW visible
24 Oct 6.4 05:29:56 10° ENE 05:32:01 12° E 05:34:06 10° ESE visible
24 Oct 3.7 18:22:00 10° S 18:26:58 56° W 18:31:59 10° NNW visible
25 Oct 3.0 17:45:10 10° SSE 17:50:11 68° ENE 17:55:16 10° N visible
25 Oct 6.0 19:26:55 10° WSW 19:29:42 15° W 19:32:31 10° NW visible
26 Oct 4.8 18:48:05 10° SSW 18:52:35 32° W 18:57:08 10° NNW visible
27 Oct 3.3 18:10:38 10° S 18:15:41 71° WSW 18:20:47 10° NNW visible
28 Oct 3.1 17:34:02 10° SSE 17:38:58 54° ENE 17:43:55 10° N visible
28 Oct 5.7 19:14:48 10° SW 19:18:19 19° W 19:21:51 10° NW visible
29 Oct 6.1 05:43:06 10° NE 05:46:27 17° E 05:49:46 10° SE visible
29 Oct 4.4 18:36:30 10° SSW 18:41:16 40° W 18:46:03 10° NNW visible
30 Oct 3.0 17:59:20 10° SSE 18:04:24 88° WSW 18:09:31 10° NNW visible
30 Oct 6.3 19:43:33 10° W 19:44:08 10° W 19:44:44 10° W visible
31 Oct 3.3 17:22:59 10° SE 17:27:46 43° ENE 17:32:33 10° N visible
31 Oct 5.3 19:02:55 10° SW 19:06:56 23° W 19:10:59 10° NW visible
01 Nov 6.3 05:32:31 10° ENE 05:35:03 14° E 05:37:33 10° ESE visible
01 Nov 3.9 18:25:01 10° S 18:29:57 51° W 18:34:54 10° NNW visible
